Wind_Speed
23 23 22 21 19 18 19 20 21 22 22 20 18 17 17 17 17 16 15 15 15 16 17 18 18 18 18 17 17 15 15 13 10 7 5 4 4 5 5 7 9 12 13
23 23 23 22 21 20 20 21 21 22 22 21 20 19 19 19 19 18 18 18 19 20 21 23 23 22 21 20 19 18 17 16 13 10 8 7 7 7 6 6 7 10 12
24 25 25 23 22 21 21 21 22 22 21 21 21 21 21 21 21 20 21 21 22 23 24 25 27 26 25 23 22 20 19 18 16 13 11 11 11 11 10 9 8 8 10
26 27 27 23 22 22 22 22 21 21 21 22 23 24 24 23 22 22 22 22 22 24 25 27 28 29 29 27 25 22 21 21 19 16 14 13 13 13 14 13 12 10 10
27 28 27 24 23 23 23 22 21 21 21 22 24 24 23 22 22 23 23 23 23 23 24 26 29 30 31 30 28 26 25 24 22 20 18 17 16 15 15 15 15 15 15
28 29 27 26 25 24 24 24 23 22 22 22 21 21 20 20 21 22 24 24 23 22 22 24 27 30 32 32 31 29 28 27 26 24 22 21 19 18 16 16 16 17 17
28 28 27 27 27 27 26 25 24 23 21 20 19 19 18 18 19 20 21 22 20 20 21 24 27 30 32 33 32 31 31 30 28 28 26 24 22 20 17 16 15 16 16
28 28 27 27 27 27 26 25 24 22 20 18 17 17 16 16 16 17 18 19 18 17 19 23 26 29 32 32 32 31 32 30 30 29 28 26 25 23 20 18 16 16 16
28 27 26 26 26 26 25 23 21 20 18 16 15 15 15 15 15 15 16 16 16 16 17 19 23 26 28 31 32 32 32 31 31 31 30 29 27 26 25 23 21 20 18
27 26 26 26 26 25 23 21 19 18 17 15 14 13 13 14 15 16 16 17 17 17 19 20 19 22 24 27 29 32 32 32 32 33 32 32 31 30 28 27 25 24 22
27 26 25 25 25 25 23 21 19 18 17 16 15 14 14 15 16 16 17 18 18 19 20 20 21 23 25 27 30 32 33 32 32 33 33 33 33 32 31 29 27 25 24
25 24 23 24 25 24 23 20 18 18 18 18 17 17 17 18 18 18 19 19 20 20 20 21 22 23 24 26 28 30 32 32 33 34 35 35 36 35 34 32 30 28 27
24 23 23 24 25 24 23 20 18 17 17 18 19 20 21 21 20 20 20 20 20 20 20 21 22 23 24 24 26 28 30 32 34 35 35 36 36 35 35 34 34 32 30
25 24 24 24 25 24 22 18 17 17 17 18 20 21 22 22 22 22 21 20 20 19 19 20 21 22 22 23 24 25 28 30 32 33 33 34 34 33 33 33 34 34 32
25 25 25 25 25 24 21 19 19 19 20 21 21 22 22 22 23 23 22 21 21 20 20 20 21 22 22 22 24 24 26 28 28 29 29 30 31 31 31 32 33 33 32
26 26 27 26 25 23 22 22 23 24 25 26 25 24 23 23 23 23 23 22 22 22 21 21 21 21 21 22 23 24 25 26 27 28 29 29 29 29 29 31 32 32 31
28 28 26 25 23 22 23 25 27 27 27 27 27 25 24 24 24 24 24 24 24 24 24 23 22 22 22 22 22 23 24 25 28 29 29 29 28 28 28 30 30 30 29
25 23 22 21 21 23 25 27 27 27 27 26 25 25 24 24 25 25 25 25 25 25 25 25 23 23 23 23 23 23 24 25 26 28 29 29 29 28 28 29 29 29 29
15 16 17 19 21 23 24 25 26 26 25 25 25 25 24 24 24 24 25 25 24 24 25 25 24 23 24 24 25 26 25 25 26 27 28 28 30 30 30 30 30 30 30
10 13 15 18 20 21 22 23 23 24 25 25 25 26 25 25 25 26 27 27 27 27 25 25 24 25 25 25 26 27 27 26 25 26 28 28 30 32 32 32 32 32 32
10 13 15 17 18 19 21 22 23 24 24 25 25 25 26 26 27 28 28 29 29 30 29 28 27 26 26 26 27 28 27 25 24 25 26 28 30 32 33 34 34 34 34
11 13 15 16 18 19 21 22 23 23 23 23 22 23 23 24 26 27 28 29 30 30 30 29 28 27 26 26 27 27 27 25 24 23 24 27 30 31 33 34 35 36 36
13 14 15 16 18 18 19 21 21 21 20 19 19 19 20 21 23 25 27 28 28 28 28 28 28 27 27 27 27 27 26 25 24 23 23 24 27 29 30 31 32 33 35
13 14 15 16 16 18 19 20 19 18 16 16 16 16 17 18 20 21 22 23 24 24 24 25 26 27 26 26 26 26 25 24 24 23 23 23 24 25 25 26 28 29 30
13 13 14 15 16 18 19 19 17 14 14 14 14 14 15 17 17 17 15 13 15 17 17 18 19 20 22 23 23 24 24 23 23 22 22 22 21 21 21 21 23 25 25
13 13 14 15 17 18 18 17 15 13 13 13 13 14 14 15 15 16 12 6 4 8 9 11 13 15 17 19 21 22 22 22 22 22 22 21 20 20 19 20 21 23 25
Wind_Direction
277 279 280 283 290 298 303 307 309 307 301 297 295 294 296 298 296 295 291 280 273 266 254 243 238 234 230 229 230 232 233 231 222 220 221 218 215 215 212 215 217 215 215
280 280 280 283 289 296 301 305 306 303 296 290 288 288 289 290 288 287 285 280 272 270 264 250 240 237 232 227 226 228 233 231 222 219 224 229 225 227 223 213 213 218 219
280 282 281 284 290 295 300 303 304 302 296 290 287 287 286 283 279 275 276 276 273 269 264 252 242 236 231 227 226 228 235 233 226 221 224 233 230 233 233 228 222 221 225
281 283 282 285 291 294 297 299 300 298 295 291 289 287 284 279 273 270 270 273 272 266 260 249 241 235 231 229 227 229 234 231 229 227 228 235 237 237 241 238 236 233 230
278 280 283 287 291 293 295 295 294 292 291 289 287 285 281 275 270 267 267 271 271 265 257 246 237 234 233 230 228 228 230 230 231 233 234 237 240 239 240 242 241 239 234
275 280 287 290 293 295 296 294 292 289 288 287 286 284 280 275 268 265 265 268 269 263 252 242 236 234 233 230 228 228 229 230 231 234 236 239 242 241 239 239 241 241 238
279 286 291 294 298 299 299 295 293 289 286 285 284 282 279 273 268 266 267 269 268 261 250 244 240 236 233 230 226 226 228 230 234 236 237 239 242 242 237 235 239 242 243
284 289 294 300 303 303 301 296 291 286 283 283 283 280 276 272 271 271 272 271 268 261 256 254 245 238 233 229 225 223 226 230 234 235 236 239 240 241 238 237 240 247 248
286 291 298 304 304 305 306 300 290 284 284 286 287 283 279 275 275 276 278 276 272 265 259 261 252 239 232 228 225 225 228 232 234 234 235 237 240 242 242 242 244 249 254
289 295 300 302 301 302 304 302 290 284 286 290 293 291 284 278 277 278 279 280 275 268 263 260 253 241 234 231 231 230 232 235 236 236 237 239 241 243 244 244 245 248 252
290 295 297 298 298 301 301 297 286 281 284 289 293 295 291 286 283 281 280 279 277 272 266 261 254 247 242 240 238 237 237 237 237 237 239 240 241 243 243 243 243 244 248
289 291 291 295 300 304 303 297 284 278 282 287 291 292 292 290 287 284 281 278 276 274 269 261 257 254 249 243 240 239 237 238 239 241 242 242 243 244 243 242 241 241 244
283 285 288 294 300 304 304 299 288 280 281 286 290 290 289 288 287 286 282 278 274 271 267 262 258 255 252 248 244 242 240 239 241 243 244 244 245 243 242 241 240 240 243
276 280 287 295 300 302 301 298 294 289 288 291 293 291 288 286 284 282 280 275 271 269 267 263 260 258 255 251 249 246 242 241 241 242 243 243 242 240 239 239 238 238 241
276 281 287 294 299 299 296 295 296 297 298 299 298 294 288 283 280 278 276 273 270 269 269 266 262 258 257 254 251 247 245 241 239 240 240 240 238 237 236 234 234 236 238
277 282 287 293 295 295 292 293 297 301 303 302 300 296 288 281 277 275 273 272 270 270 270 268 264 258 254 253 250 248 247 243 240 241 240 238 237 235 232 231 232 234 235
274 279 284 289 291 291 291 294 297 300 301 300 298 294 288 281 276 274 272 270 269 269 267 264 261 256 253 253 252 249 248 245 242 240 238 235 235 233 230 229 229 230 231
273 277 282 286 288 290 292 295 298 300 299 298 295 291 287 281 277 276 273 270 268 267 265 259 257 255 255 256 255 254 251 248 244 242 240 238 236 232 230 229 229 229 232
272 277 282 286 289 291 294 297 299 300 301 300 297 294 290 284 279 276 273 272 270 270 266 258 255 254 255 255 254 253 252 249 247 246 243 240 236 232 231 231 230 231 232
278 282 286 290 294 297 299 300 301 302 302 301 299 296 292 287 282 278 275 273 270 268 267 259 255 254 253 251 250 250 250 248 247 246 244 242 240 236 233 232 233 234 234
291 292 294 298 302 304 305 306 306 306 304 301 298 295 292 289 285 281 277 273 270 266 263 261 257 253 251 249 247 246 246 246 247 247 245 245 243 240 238 236 235 236 236
307 304 304 306 308 310 311 312 312 311 308 304 301 298 295 292 288 284 279 274 269 265 261 258 254 251 249 245 241 240 241 243 246 249 250 250 247 244 241 239 238 236 236
314 311 310 312 315 317 319 320 319 315 312 309 306 304 300 298 294 288 282 275 267 260 256 254 252 248 245 239 236 236 240 243 246 251 255 256 256 252 245 240 236 232 231
317 316 317 320 323 325 326 325 322 320 319 317 317 315 312 309 306 299 290 276 263 255 251 250 248 243 241 233 230 233 238 242 246 251 255 258 259 258 254 243 234 230 231
321 321 323 325 327 328 329 329 330 331 331 330 329 328 327 326 326 323 312 285 258 247 242 242 236 231 225 222 225 229 234 239 244 248 251 254 258 262 262 252 242 239 239
322 322 322 325 327 329 332 336 341 343 340 337 336 337 341 345 349 353 353 339 259 231 227 221 217 217 216 220 226 229 234 238 243 247 248 250 254 258 259 257 253 249 248
Height
5852 5850 5849 5848 5846 5845 5843 5840 5838 5837 5835 5833 5832 5831 5830 5829 5829 5828 5828 5828 5829 5829 5830 5831 5833 5835 5836 5838 5840 5842 5844 5845 5847 5848 5849 5850 5851 5851 5852 5853 5856 5858 5860
5847 5846 5844 5843 5841 5840 5838 5836 5834 5832 5830 5829 5828 5827 5826 5825 5825 5824 5823 5823 5824 5825 5826 5827 5828 5830 5832 5835 5836 5839 5841 5843 5845 5846 5847 5849 5850 5850 5851 5853 5854 5856 5857
5841 5840 5839 5838 5836 5834 5832 5830 5828 5826 5825 5823 5822 5822 5821 5821 5820 5819 5819 5819 5819 5819 5820 5821 5822 5824 5827 5830 5832 5835 5838 5840 5842 5844 5846 5847 5848 5849 5850 5851 5853 5854 5856
5835 5835 5833 5832 5830 5828 5826 5824 5822 5820 5818 5817 5816 5815 5815 5814 5814 5814 5814 5813 5813 5813 5813 5814 5816 5819 5822 5825 5828 5831 5834 5836 5839 5841 5843 5845 5846 5847 5848 5849 5851 5852 5853
5830 5829 5828 5826 5824 5823 5821 5818 5816 5814 5812 5811 5809 5808 5807 5807 5807 5807 5808 5807 5807 5806 5806 5808 5810 5813 5816 5819 5823 5827 5829 5832 5835 5838 5840 5841 5843 5844 5845 5846 5848 5849 5851
5825 5823 5822 5820 5819 5817 5814 5812 5809 5807 5805 5804 5802 5801 5800 5800 5800 5800 5801 5801 5800 5800 5800 5801 5804 5807 5810 5813 5817 5821 5824 5827 5830 5833 5835 5837 5839 5840 5841 5843 5844 5845 5847
5819 5818 5816 5814 5812 5810 5807 5805 5802 5800 5799 5797 5796 5795 5795 5794 5794 5794 5794 5794 5794 5794 5794 5795 5798 5800 5803 5806 5810 5814 5817 5821 5824 5827 5830 5832 5834 5836 5837 5839 5840 5841 5843
5814 5812 5810 5808 5806 5803 5801 5798 5796 5794 5793 5791 5790 5790 5790 5789 5789 5788 5788 5788 5788 5788 5789 5789 5791 5793 5796 5800 5803 5807 5811 5814 5818 5821 5824 5826 5829 5831 5833 5834 5836 5838 5839
5808 5806 5805 5803 5800 5798 5795 5793 5791 5789 5787 5786 5785 5785 5784 5784 5784 5784 5783 5783 5783 5784 5785 5785 5786 5787 5790 5794 5797 5801 5805 5808 5811 5814 5817 5820 5823 5825 5827 5829 5831 5833 5834
5801 5800 5799 5797 5795 5793 5790 5788 5786 5784 5783 5782 5781 5780 5780 5780 5779 5779 5779 5778 5779 5779 5780 5781 5782 5783 5785 5788 5792 5795 5798 5801 5804 5808 5811 5814 5816 5819 5822 5824 5826 5827 5829
5796 5794 5793 5791 5789 5787 5785 5783 5781 5780 5779 5778 5777 5776 5775 5775 5775 5774 5774 5774 5773 5774 5775 5776 5777 5779 5781 5783 5785 5788 5791 5794 5797 5800 5804 5806 5809 5812 5815 5817 5820 5822 5823
5790 5789 5787 5785 5783 5781 5779 5777 5775 5775 5774 5773 5772 5771 5770 5770 5770 5769 5769 5769 5768 5768 5769 5771 5772 5773 5775 5776 5778 5781 5784 5787 5790 5793 5796 5799 5801 5804 5807 5810 5813 5815 5817
5784 5783 5781 5779 5777 5775 5773 5771 5770 5769 5768 5768 5767 5766 5765 5764 5764 5763 5763 5763 5763 5763 5764 5765 5766 5767 5768 5770 5772 5774 5776 5779 5782 5785 5788 5790 5793 5796 5799 5802 5805 5808 5810
5778 5777 5775 5773 5771 5769 5768 5766 5765 5764 5763 5762 5761 5760 5759 5758 5757 5757 5757 5757 5756 5757 5757 5758 5759 5760 5762 5763 5765 5766 5769 5771 5774 5777 5779 5782 5785 5788 5791 5794 5797 5800 5803
5771 5770 5769 5768 5766 5764 5762 5761 5760 5758 5757 5756 5755 5753 5752 5751 5750 5750 5750 5750 5750 5750 5751 5752 5752 5754 5755 5756 5758 5759 5761 5763 5766 5769 5771 5774 5777 5780 5783 5786 5789 5792 5796
5764 5763 5762 5762 5760 5758 5756 5755 5754 5752 5750 5749 5747 5746 5745 5744 5743 5743 5743 5744 5744 5744 5745 5745 5746 5747 5748 5750 5751 5753 5755 5756 5759 5761 5764 5767 5769 5772 5775 5779 5782 5785 5789
5757 5757 5756 5756 5754 5752 5751 5749 5747 5745 5743 5741 5739 5738 5737 5736 5736 5736 5736 5737 5737 5738 5738 5739 5740 5741 5742 5744 5745 5747 5749 5750 5752 5754 5757 5760 5763 5766 5768 5772 5775 5779 5782
5751 5751 5751 5750 5749 5747 5745 5742 5740 5738 5736 5734 5732 5730 5729 5729 5728 5728 5728 5729 5729 5730 5731 5732 5734 5735 5736 5737 5738 5740 5742 5744 5746 5748 5750 5753 5756 5759 5762 5765 5769 5772 5776
5746 5746 5746 5745 5743 5741 5738 5736 5734 5731 5729 5726 5724 5722 5721 5721 5721 5721 5721 5721 5722 5722 5723 5724 5726 5728 5729 5730 5732 5734 5736 5738 5739 5741 5744 5746 5749 5752 5755 5758 5762 5765 5768
5742 5742 5741 5739 5737 5735 5733 5730 5728 5725 5723 5720 5717 5715 5714 5713 5712 5712 5712 5713 5713 5714 5715 5716 5718 5720 5722 5724 5726 5728 5730 5731 5733 5735 5737 5739 5742 5744 5747 5750 5754 5757 5760
5738 5737 5735 5733 5731 5729 5727 5725 5722 5719 5716 5714 5711 5708 5706 5705 5704 5703 5703 5703 5704 5705 5706 5708 5710 5712 5714 5716 5718 5721 5723 5725 5727 5729 5731 5733 5734 5737 5739 5742 5745 5748 5752
5733 5732 5730 5729 5727 5724 5722 5719 5716 5713 5710 5707 5704 5702 5699 5697 5695 5694 5693 5693 5693 5695 5696 5698 5701 5703 5706 5708 5711 5713 5716 5719 5721 5723 5724 5726 5727 5729 5731 5733 5736 5739 5742
5729 5728 5726 5725 5723 5720 5717 5714 5711 5708 5705 5702 5699 5696 5693 5691 5688 5685 5683 5682 5683 5684 5686 5688 5691 5694 5697 5700 5703 5706 5709 5712 5715 5717 5718 5720 5721 5722 5723 5725 5728 5731 5734
5726 5725 5723 5721 5719 5716 5713 5710 5707 5704 5700 5697 5694 5691 5688 5685 5681 5677 5674 5672 5672 5674 5676 5679 5682 5685 5689 5693 5697 5700 5703 5706 5709 5711 5713 5714 5715 5716 5717 5718 5721 5723 5726
5723 5722 5720 5718 5716 5713 5710 5707 5703 5700 5697 5694 5691 5688 5685 5681 5677 5671 5666 5663 5664 5667 5669 5672 5675 5678 5682 5687 5691 5694 5698 5701 5704 5706 5707 5709 5710 5711 5712 5713 5715 5717 5719
5721 5720 5718 5716 5714 5711 5708 5704 5701 5698 5695 5693 5690 5687 5684 5680 5675 5670 5665 5662 5661 5663 5666 5669 5672 5675 5679 5683 5686 5690 5693 5696 5698 5700 5702 5704 5705 5706 5707 5708 5709 5711 5713